Regional Weather Roundup
Issued by NWS Upton, NY

Current Version | Previous Version | Text Only | Print | Product List | Glossary On
Versions: 1 2 3 4 5 6 7 8 9 10 11 12 13 14 15 16 17 18 19 20 21 22 23 24 25 26 27 28 29 30 31 32 33 34 35 36
000 ASUS41 KOKX 230905 RWROKX REGIONAL WEATHER ROUNDUP NATIONAL WEATHER SERVICE NEW YORK NY 500 AM EDT THU OCT 23 2014 NOTE: "FAIR" INDICATES FEW OR NO CLOUDS BELOW 12,000 FEET WITH NO SIGNIFICANT WEATHER AND/OR OBSTRUCTIONS TO VISIBILITY. NYZ071-072-176-178-NJZ106-104-231000- NEW YORK CITY METRO AREA CITY SKY/WX TMP DP RH WIND PRES REMARKS CENTRAL PARK LGT RAIN 51 47 86 N10G18 29.73S LAGUARDIA APRT LGT RAIN 52 48 86 N17 29.69F KENNEDY INTL LGT RAIN 52 48 86 N17G25 29.68S NEWARK/LIBERTY LGT RAIN 52 48 86 N16 29.71R BRNX BOT. GARD N/A 50 46 87 NW8 29.72S TETERBORO RAIN 52 46 80 N14G21 29.70S $$ NYZ177-179-078>081-231000- LONG ISLAND NEW YORK CITY SKY/WX TMP DP RH WIND PRES REMARKS FARMINGDALE CLOUDY 52 47 83 N17 29.67R ISLIP RAIN 51 47 86 N24G35 29.63S FOG SHIRLEY RAIN 51 48 89 N17G24 29.65R FOG WESTHAMPTON LGT RAIN 51 48 89 N22G29 29.63S FOG MONTAUK POINT N/A 54 49 83 N17G30 29.61S $$ NYZ052-065-067-231000- HUDSON VALLEY CITY SKY/WX TMP DP RH WIND PRES REMARKS WHITE PLAINS LGT RAIN 50 46 86 N18G25 29.68S NEWBURGH CLOUDY 50 48 93 NE21G31 29.77S MONTGOMERY CLOUDY 50 47 89 NE7 29.76R POUGHKEEPSIE CLOUDY 50 45 83 N15G28 29.76F ALBANY LGT RAIN 47 44 90 N12 29.86F $$ NJZ001-105-106-008-010-013-015-019>022-104-231000- NEW JERSEY CITY SKY/WX TMP DP RH WIND PRES REMARKS NEWARK/LIBERTY LGT RAIN 52 48 86 N16 29.71R TETERBORO RAIN 52 46 80 N14G21 29.70S CALDWELL LGT RAIN 51 46 83 NE8G20 29.73S MORRISTOWN LGT RAIN 54 46 76 N13G18 29.74S SOMERVILLE LGT RAIN 53 46 77 N9 29.72S SUSSEX LGT RAIN 52 47 83 VRB3 29.76F ANDOVER N/A 49 46 90 N8 29.76S TRENTON CLOUDY 52 45 77 N13 29.73R MILLVILLE CLOUDY 52 46 80 NW9G25 29.73S ATLANTIC CITY CLOUDY 51 49 92 N16 29.70R WRIGHTSTOWN CLOUDY 52 47 84 NW15G24 29.70R TOMS RIVER CLOUDY 52 48 87 N8 29.69R BELMAR CLOUDY 52 43 71 N16 29.68R $$ PAZ047>061-062-071-231000- EASTERN PENNSYLVANIA CITY SKY/WX TMP DP RH WIND PRES REMARKS PHILADELPHIA CLOUDY 53 45 74 NW17 29.76R ALLENTOWN CLOUDY 51 43 74 N10G22 29.79S SCRANTON RAIN 47 42 83 N16G24 29.86F $$ CTZ002-004>006-009-010-012-RIZ004-006-007-MAZ004-011-015-231000- SOUTHERN NEW ENGLAND IN CT CITY SKY/WX TMP DP RH WIND PRES REMARKS BRADLEY INTL LGT RAIN 51 46 83 N20G26 29.70F HARTFORD CLOUDY 50 45 83 N16G24 29.71F DANBURY CLOUDY 51 44 77 N8G22 29.72S WTRBRY/OXFORD CLOUDY 50 41 71 N22G28 29.69F BRIDGEPORT CLOUDY 52 47 83 N28G37 29.65S MERIDEN CLOUDY 50 45 83 N17G26 29.69F NEW HAVEN LGT RAIN 52 46 80 N25G38 29.64S CHESTER CLOUDY 50 45 81 N14G24 29.65F GROTON MOCLDY 50 46 86 N21G30 29.61S WILLIMANTIC CLOUDY 51 44 77 N16G25 29.68F IN RI CITY SKY/WX TMP DP RH WIND PRES REMARKS PROVIDENCE CLOUDY 51 47 86 N23G37 29.65R BLOCK ISLAND CLOUDY 54 48 82 N18G30 29.57F WESTERLY CLOUDY 52 47 83 N17G29 29.61F IN MA CITY SKY/WX TMP DP RH WIND PRES REMARKS BOSTON LGT RAIN 51 50 96 N23G40 29.70F FOG WORCESTER RAIN 45 44 97 N18G32 29.70F FOG WESTFIELD LGT RAIN 50 46 86 N20G29 29.73F PROVINCETOWN CLOUDY 57 3 11 NE16G24 29.61S NANTUCKET CLOUDY 58 56 93 NE8 29.51F $$ ANZ330-335-338-340-345-350-353-355-231000- COASTAL MARINE OBSERVATIONS STATION/POSITION TIME SKY/WX TEMP WIND PRES VSBY WAVE AIR SEA DIR/SP/G HT/PER (UTC) (F) (DEG/KT/KT) (MB) (MI) (FT/S) NY HARB ENTRANCE NOT AVBL 4S FIRE IS 0900 63 N/A 7/ 8 20S FIRE ISLAND 0900 56 64 10/ 29/ 37 1001.3 10/ 7 23SW MTP 0900 N/A 9/ 7 HUDSON CANYON 0900 61 67 10/ 27/ 31 998.7 11/ 8 EXECUTION ROCKS 0900 54 62 360/ 12/ 16 N/A WESTERN LI SOUND 0900 54 360/ 12/ 17 N/A 4/ 5 CENTRAL LI SOUND 0900 54 63 10/ 25/ 31 N/A 4/ 4 EASTERN LI SOUND 0800 54 63 20/ 23/ 31 N/A ROBBINS REEF 0900 53 360/ 21/ 26 1004.1 $$ >>>>>>>>>>>>>>>>>>>>>>>>>>>> KEY <<<<<<<<<<<<<<<<<<<<<<<<<<< > < > SKY/WX - SKY CONDITION/PRESENT WEATHER < > TMP - TEMPERATURE IN FAHRENHEIT < > DP - DEWPOINT IN FAHRENHEIT < > RH - RELATIVE HUMIDITY IN PERCENT < > WIND - DIRECTION AND SPEED IN MPH < > PRES - MEAN SEA LEVEL PRESSURE IN INCHES OF HG < > WCI - WIND CHILL INDEX < > VSB - VISIBILITY IN MILES < > HX - HEAT INDEX < > TC - TEMPERATURE IN CELSIUS < > VRB - VARIABLE WIND DIRECTION < > < >>>>>>>>>>>>>>>>>>>>>>>>>>>> KEY <<<<<<<<<<<<<<<<<<<<<<<<<<<

USA.gov is the U.S. government's official web portal to all federal, state and local government web resources and services.